Weather History for KLYH - May, 2013

Change the Weather History Date:

Tuesday, May 7, 2013

  Actual Average Record
Temperature  
Mean Temperature 58 °F 61 °F  
Max Temperature 66 °F 73 °F 95 °F (1940)
Min Temperature 50 °F 48 °F 32 °F (1970)
Degree Days  
Heating Degree Days 7 5  
Month to date heating degree days 62 40  
Since 1 July heating degree days 4204 4363  
Cooling Degree Days 0 1  
Month to date cooling degree days 0 7  
Year to date cooling degree days 40 25  
Growing Degree Days 8 (Base 50)    
Moisture  
Dew Point 56 °F    
Average Humidity 92    
Maximum Humidity 100    
Minimum Humidity 84    
Precipitation  
Precipitation 1.07 in 0.12 in 1.07 in (2013)
Month to date precipitation 2.89 0.78  
Year to date precipitation 17.21 13.74  
Snow  
Snow 0.00 in - - ()
Month to date snowfall 0.0  
Since 1 July snowfall 13.0  
Snow Depth 0.00 in    
Sea Level Pressure  
Sea Level Pressure 29.91 in    
Wind  
Wind Speed 5 mph (NNE)    
Max Wind Speed 16 mph    
Max Gust Speed 24 mph    
Visibility 6 miles    
Events Fog , Rain , Thunderstorm    
T = Trace of Precipitation, MM = Missing Value Source: NWS Daily Summary

Daily Weather History Graph

Daily Weather History Graph

Search for Another Location

Airport or City:

Trip Planner

Search our weather history database for the weather conditions in past years. The results will help you decide how hot, cold, wet, or windy it might be!

Date:

Astronomy

May. 07, 2013 Rise Set
Actual Time 6:15 AM EDT 8:12 PM EDT
Civil Twilight 5:46 AM EDT 8:40 PM EDT
Nautical Twilight 5:12 AM EDT 9:15 PM EDT
Astronomical Twilight 4:34 AM EDT 9:52 PM EDT
Moon 4:45 AM EDT (5/7) 6:12 PM EDT (5/7)
Length of Visible Light 14h 53m
Length of Day
13h 56m
Waning Crescent, 5% of the Moon is Illuminated
May 7
Waning Crescent
May 9
New
May 18
First Quarter
May 25
Full
May 31
Last Quarter

Hourly Weather History & Observations

Time (EDT) Temp. Dew Point Humidity Pressure Visibility Wind Dir Wind Speed Gust Speed Precip Events Conditions
12:14 AM 55.4 °F 55.4 °F 100% 29.96 in 10.0 mi ENE 3.5 mph - 0.01 in Rain Light Rain
12:54 AM 55.9 °F 55.0 °F 97% 29.94 in 10.0 mi NE 6.9 mph - 0.05 in Rain Light Rain
1:47 AM 55.4 °F 55.4 °F 100% 29.94 in 10.0 mi NNE 6.9 mph - 0.09 in Rain Light Rain
1:54 AM 55.9 °F 55.9 °F 100% 29.94 in 10.0 mi NNE 5.8 mph - 0.09 in Rain Light Rain
1:59 AM 55.4 °F 55.4 °F 100% 29.94 in 10.0 mi NNE 5.8 mph - 0.00 in   Overcast
2:08 AM 57.2 °F 55.4 °F 94% 29.94 in 10.0 mi NNE 5.8 mph - 0.00 in   Overcast
2:51 AM 57.2 °F 55.4 °F 94% 29.93 in 9.0 mi NNE 3.5 mph - 0.00 in   Overcast
2:54 AM 57.0 °F 55.9 °F 96% 29.92 in 9.0 mi NNE 4.6 mph - 0.00 in   Overcast
3:15 AM 57.2 °F 55.4 °F 94% 29.92 in 2.5 mi North 4.6 mph - N/A   Overcast
3:28 AM 57.2 °F 55.4 °F 94% 29.92 in 1.8 mi North 4.6 mph - N/A   Overcast
3:54 AM 57.0 °F 55.9 °F 96% 29.91 in 1.8 mi North 8.1 mph - 0.00 in Rain Light Rain
4:04 AM 57.2 °F 55.4 °F 94% 29.92 in 2.0 mi North 8.1 mph - 0.00 in Rain Light Rain
4:12 AM 57.2 °F 55.4 °F 94% 29.91 in 1.8 mi North 6.9 mph - 0.00 in Rain Light Rain
4:30 AM 57.2 °F 55.4 °F 94% 29.91 in 1.0 mi North 9.2 mph - 0.00 in   Mist
4:40 AM 57.2 °F 57.2 °F 100% 29.91 in 0.8 mi North 8.1 mph - 0.00 in   Mist
4:54 AM 57.0 °F 57.0 °F 100% 29.91 in 0.5 mi NNE 6.9 mph - 0.00 in Fog Fog
5:08 AM 57.2 °F 57.2 °F 100% 29.90 in 0.5 mi North 8.1 mph - 0.00 in Fog , Rain Light Rain
5:54 AM 57.2 °F 57.2 °F 100% 29.90 in 1.2 mi NNE 8.1 mph - N/A Rain Light Rain
5:56 AM 57.2 °F 57.2 °F 100% 29.90 in 2.0 mi NNE 8.1 mph - 0.01 in Rain Light Rain
6:04 AM 57.2 °F 57.2 °F 100% 29.90 in 7.0 mi NE 6.9 mph - 0.02 in Rain Light Rain
6:26 AM 57.2 °F 57.2 °F 100% 29.89 in 2.5 mi NNE 9.2 mph - 0.03 in Rain Rain
6:34 AM 57.2 °F 57.2 °F 100% 29.89 in 6.0 mi NNE 9.2 mph 17.3 mph 0.04 in Rain Light Rain
6:54 AM 59.0 °F 57.9 °F 96% 29.89 in 4.0 mi NNE 9.2 mph - 0.04 in Rain Light Rain
7:54 AM 59.0 °F 57.9 °F 96% 29.88 in 4.0 mi NE 15.0 mph 20.7 mph 0.02 in Rain Rain
8:09 AM 59.0 °F 59.0 °F 100% 29.90 in 2.0 mi NE 11.5 mph - 0.08 in Rain Light Rain
8:13 AM 59.0 °F 59.0 °F 100% 29.90 in 5.0 mi NE 8.1 mph - 0.08 in Rain Light Rain
8:28 AM 59.0 °F 59.0 °F 100% 29.90 in 1.8 mi NE 12.7 mph - 0.09 in   Overcast
8:38 AM 59.0 °F 59.0 °F 100% 29.90 in 2.0 mi ENE 9.2 mph - 0.09 in   Overcast
8:54 AM 59.0 °F 59.0 °F 100% 29.89 in 1.5 mi ENE 6.9 mph - 0.11 in Rain Rain
9:11 AM 60.8 °F 59.0 °F 94% 29.91 in 1.2 mi East 5.8 mph - 0.14 in Rain Heavy Rain
9:13 AM 60.8 °F 59.0 °F 94% 29.91 in 1.8 mi Variable 5.8 mph - 0.15 in Rain Light Rain
9:16 AM 60.8 °F 59.0 °F 94% 29.91 in 3.0 mi East 8.1 mph - 0.15 in Rain Light Rain
9:54 AM 61.0 °F 59.0 °F 93% 29.90 in 5.0 mi East 9.2 mph - 0.15 in Rain Light Rain
10:38 AM 62.6 °F 60.8 °F 94% 29.91 in 9.0 mi Variable 6.9 mph - 0.00 in Rain Light Rain
10:44 AM 62.6 °F 60.8 °F 94% 29.91 in 10.0 mi ENE 9.2 mph 16.1 mph 0.00 in Rain Light Rain
10:54 AM 62.1 °F 60.1 °F 93% 29.90 in 10.0 mi ENE 10.4 mph - 0.00 in Rain Light Rain
11:37 AM 66.2 °F 60.8 °F 83% 29.91 in 10.0 mi Variable 6.9 mph - 0.01 in   Mostly Cloudy
11:50 AM 64.4 °F 59.0 °F 83% 29.90 in 10.0 mi ESE 9.2 mph - N/A   Mostly Cloudy
11:54 AM 63.0 °F 59.0 °F 87% 29.90 in 10.0 mi South 18.4 mph 24.2 mph 0.01 in Rain Light Rain
11:56 AM 60.8 °F 59.0 °F 94% 29.91 in 10.0 mi Variable 5.8 mph 24.2 mph 0.00 in Rain , Thunderstorm Light Thunderstorms and Rain
12:10 PM 59.0 °F 57.2 °F 94% 29.92 in 9.0 mi SSW 3.5 mph - 0.04 in Rain , Thunderstorm Light Thunderstorms and Rain
12:16 PM 57.2 °F 55.4 °F 94% 29.90 in 1.8 mi WSW 5.8 mph - 0.06 in Rain , Thunderstorm Heavy Thunderstorms and Rain
12:28 PM 57.2 °F 55.4 °F 94% 29.91 in 2.0 mi Calm Calm - 0.16 in Rain , Thunderstorm Heavy Thunderstorms and Rain
12:35 PM 57.2 °F 55.4 °F 94% 29.91 in 1.8 mi Calm Calm - 0.24 in Rain , Thunderstorm Heavy Thunderstorms and Rain
12:39 PM 57.2 °F 53.6 °F 88% 29.91 in 3.0 mi Calm Calm - 0.25 in Rain , Thunderstorm Light Thunderstorms and Rain
12:54 PM 59.0 °F 55.9 °F 90% 29.89 in 10.0 mi Calm Calm - 0.26 in Thunderstorm Thunderstorm
1:05 PM 59.0 °F 55.4 °F 88% 29.90 in 10.0 mi Calm Calm - N/A Thunderstorm Thunderstorm
1:19 PM 59.0 °F 57.2 °F 94% 29.91 in 10.0 mi NNW 4.6 mph - N/A   Mostly Cloudy
1:30 PM 57.2 °F 55.4 °F 94% 29.91 in 10.0 mi NW 5.8 mph - N/A   Mostly Cloudy
1:42 PM 59.0 °F 57.2 °F 94% 29.90 in 10.0 mi West 4.6 mph - N/A   Overcast
1:54 PM 61.0 °F 57.0 °F 87% 29.90 in 10.0 mi NW 4.6 mph - N/A   Overcast
2:16 PM 60.8 °F 57.2 °F 88% 29.90 in 10.0 mi NW 4.6 mph - N/A   Overcast
2:37 PM 59.0 °F 55.4 °F 88% 29.90 in 10.0 mi Calm Calm - 0.00 in Rain Light Rain
2:54 PM 59.0 °F 55.9 °F 90% 29.89 in 10.0 mi Calm Calm - 0.00 in   Overcast
3:42 PM 57.2 °F 55.4 °F 94% 29.90 in 10.0 mi North 5.8 mph - N/A   Overcast
3:54 PM 57.0 °F 54.0 °F 89% 29.89 in 10.0 mi Variable 6.9 mph - N/A   Overcast
4:54 PM 61.0 °F 55.0 °F 81% 29.87 in 10.0 mi North 10.4 mph - N/A   Overcast
5:04 PM 62.6 °F 55.4 °F 77% 29.88 in 10.0 mi NNE 9.2 mph - N/A Thunderstorm Thunderstorm
5:33 PM 59.0 °F 55.4 °F 88% 29.90 in 10.0 mi East 4.6 mph - N/A Thunderstorm Thunderstorm
5:54 PM 54.0 °F 52.0 °F 93% 29.92 in 4.0 mi Calm Calm - 0.23 in Rain , Thunderstorm Heavy Thunderstorms and Rain
6:18 PM 55.4 °F 53.6 °F 94% 29.92 in 6.0 mi Calm Calm - 0.14 in Rain Light Rain
6:54 PM 55.9 °F 54.0 °F 93% 29.91 in 10.0 mi Calm Calm - 0.14 in   Mostly Cloudy
7:54 PM 55.0 °F 54.0 °F 96% 29.91 in 10.0 mi Calm Calm - N/A   Clear
8:43 PM 53.6 °F 53.6 °F 100% 29.92 in 1.5 mi Calm Calm - N/A   Clear
8:48 PM 53.6 °F 53.6 °F 100% 29.92 in 0.8 mi Calm Calm - N/A   Clear
8:54 PM 53.1 °F 52.0 °F 96% 29.92 in 10.0 mi Calm Calm - N/A   Clear
9:42 PM 51.8 °F 51.8 °F 100% 29.94 in 10.0 mi NNE 4.6 mph - N/A   Partly Cloudy
9:54 PM 52.0 °F 52.0 °F 100% 29.93 in 10.0 mi Calm Calm - N/A   Partly Cloudy
10:19 PM 51.8 °F 51.8 °F 100% 29.95 in 2.5 mi Calm Calm - N/A   Clear
10:24 PM 50.0 °F 50.0 °F 100% 29.95 in 1.8 mi Calm Calm - N/A   Partly Cloudy
10:51 PM 51.8 °F 51.8 °F 100% 29.96 in 3.0 mi SW 3.5 mph - N/A   Partly Cloudy
10:54 PM 51.1 °F 51.1 °F 100% 29.95 in 4.0 mi Calm Calm - N/A   Partly Cloudy
11:02 PM 50.0 °F 50.0 °F 100% 29.96 in 1.8 mi SSW 4.6 mph - N/A   Scattered Clouds
11:05 PM 50.0 °F 50.0 °F 100% 29.96 in 1.0 mi SSW 3.5 mph - N/A   Mist
11:13 PM 51.8 °F 51.8 °F 100% 29.95 in 0.5 mi Calm Calm - N/A Fog Fog
11:45 PM 51.8 °F 51.8 °F 100% 29.96 in 0.2 mi Calm Calm - N/A Fog Fog
11:54 PM 53.1 °F 52.0 °F 96% 29.96 in 0.2 mi Calm Calm - N/A Fog Fog